This is the latest recevied weather packets stored in our database for station/object JF2ZGN-13. If no packets are shown the sender has not sent any weather packets the latest 10 day(s).
| Time | Temp. | Humidity | Pressure | Rain* | Wind** | Luminosity | Snow |
|---|---|---|---|---|---|---|---|
| 1777846515 | 15° C | 38% | 892.8 hPa | 19.81 mm | - | - | - |
| 1777845914 | 15.56° C | 43% | 892.8 hPa | 19.81 mm | - | - | - |
| 1777845314 | 15.56° C | 53% | 892.6 hPa | 19.81 mm | - | - | - |
| 1777844713 | 15.56° C | 61% | 893.3 hPa | 19.56 mm | - | - | - |
| 1777844113 | 16.11° C | 68% | 893.1 hPa | 19.3 mm | - | - | - |
| 1777843512 | 16.67° C | 65% | 893.2 hPa | 19.3 mm | - | - | - |
| 1777842912 | 16.67° C | 62% | 892.9 hPa | 18.8 mm | - | - | - |
| 1777842311 | 16.67° C | 70% | 893.1 hPa | 18.29 mm | - | - | - |
| 1777841710 | 16.67° C | 66% | 893.2 hPa | 17.53 mm | - | - | - |
| 1777841111 | 16.67° C | 65% | 894 hPa | 17.27 mm | - | - | - |
| 1777840510 | 16.67° C | 69% | 893.3 hPa | 16.26 mm | - | - | - |
| 1777839909 | 16.67° C | 62% | 892.9 hPa | 15.75 mm | - | - | - |
| 1777839309 | 16.67° C | 67% | 893.4 hPa | 15.49 mm | - | - | - |
| 1777838708 | 16.67° C | 71% | 893.8 hPa | 14.73 mm | - | - | - |
| 1777838108 | 16.67° C | 61% | 893.7 hPa | 13.97 mm | - | - | - |
| 1777837507 | 16.67° C | 65% | 893.7 hPa | 12.7 mm | - | - | - |
| 1777836907 | 16.67° C | 65% | 893.2 hPa | 11.94 mm | - | - | - |
| 1777836306 | 16.11° C | 62% | 892.7 hPa | 11.43 mm | - | - | - |
| 1777835706 | 16.11° C | 55% | 892.7 hPa | 10.92 mm | - | - | - |
| 1777835105 | 16.11° C | 64% | 893.8 hPa | 10.67 mm | - | - | - |
| 1777834505 | 16.11° C | 67% | 893.5 hPa | 9.91 mm | - | - | - |
| 1777833905 | 16.11° C | 66% | 893.9 hPa | 9.4 mm | - | - | - |
| 1777833304 | 16.11° C | 66% | 893.9 hPa | 8.89 mm | - | - | - |
| 1777832704 | 16.11° C | 65% | 894.6 hPa | 8.64 mm | - | - | - |
| 1777832103 | 15.56° C | 68% | 894.3 hPa | 8.13 mm | - | - | - |
* Rain since midnight (hover to see other rain measurements)
** Current wind speed in m/s (hover to see current wind gust speed)